Irving, TX

8:50 AM CST on February 06, 2016 (GMT -0600)
Dallas-Fort Worth International

Weather History for KDFW - January, 2014

Change the Weather History Date:

Saturday, January 18, 2014

  Actual Average Record
Temperature  
Mean Temperature 52 °F 46 °F  
Max Temperature 69 °F 56 °F 80 °F (1923)
Min Temperature 35 °F 35 °F -1 °F (1930)
Degree Days  
Heating Degree Days 13 19  
Month to date heating degree days 340 353  
Since 1 July heating degree days 1412 1265  
Cooling Degree Days 0 0  
Month to date cooling degree days 0 0  
Year to date cooling degree days 0 0  
Growing Degree Days 2 (Base 50)    
Moisture  
Dew Point 24 °F    
Average Humidity 38    
Maximum Humidity 56    
Minimum Humidity 20    
Precipitation  
Precipitation 0.00 in 0.07 in 1.99 in (1990)
Month to date precipitation 0.33 1.14  
Year to date precipitation 0.33 1.14  
Snow  
Snow 0.00 in 0.00 in 3.80 in (1956)
Month to date snowfall 0.0 0.1  
Since 1 July snowfall 2.1 0.4  
Snow Depth 0.00 in    
Sea Level Pressure  
Sea Level Pressure 30.12 in    
Wind  
Wind Speed 12 mph (WSW)    
Max Wind Speed 23 mph    
Max Gust Speed 28 mph    
Visibility 10 miles    
Events      
T = Trace of Precipitation, MM = Missing Value Source: NWS Daily Summary

Daily Weather History Graph

Daily Weather History Graph

Search for Another Location

Airport or City:

Trip Planner

Search our weather history database for the weather conditions in past years. The results will help you decide how hot, cold, wet, or windy it might be!

Date:

Astronomy

Jan. 18, 2014 Rise Set
Actual Time 7:30 AM CST 5:47 PM CST
Civil Twilight 7:03 AM CST 6:14 PM CST
Nautical Twilight 6:33 AM CST 6:44 PM CST
Astronomical Twilight 6:03 AM CST 7:13 PM CST
Moon 8:19 PM CST (1/18) 8:40 AM CST (1/18)
Length of Visible Light 11h 10m
Length of Day
10h 17m
Waning Gibbous, 94% of the Moon is Illuminated
Jan 18
Waning Gibbous
Jan 23
Last Quarter
Jan 30
New
Feb 6
First Quarter
Feb 14
Full

Hourly Weather History & Observations

Time (CST) Temp. Windchill Dew Point Humidity Pressure Visibility Wind Dir Wind Speed Gust Speed Precip Events Conditions
12:53 AM 37.9 °F 32.1 °F 18.0 °F 45% 30.17 in 10.0 mi South 8.1 mph - N/A   Clear
1:53 AM 39.0 °F 34.0 °F 18.0 °F 43% 30.18 in 10.0 mi SSW 6.9 mph - N/A   Clear
2:53 AM 37.9 °F 31.5 °F 18.0 °F 45% 30.17 in 10.0 mi SW 9.2 mph - N/A   Clear
3:53 AM 39.0 °F 32.3 °F 19.0 °F 45% 30.16 in 10.0 mi SSW 10.4 mph - N/A   Clear
4:53 AM 37.9 °F 30.9 °F 19.0 °F 47% 30.15 in 10.0 mi SSW 10.4 mph - N/A   Clear
5:53 AM 39.0 °F 32.3 °F 19.9 °F 46% 30.14 in 10.0 mi SW 10.4 mph - N/A   Clear
6:53 AM 43.0 °F 36.0 °F 21.0 °F 42% 30.14 in 10.0 mi SW 13.8 mph - N/A   Partly Cloudy
7:53 AM 36.0 °F 28.5 °F 21.9 °F 57% 30.14 in 10.0 mi South 10.4 mph - N/A   Partly Cloudy
8:53 AM 46.9 °F - 21.9 °F 37% 30.15 in 10.0 mi SW 16.1 mph - N/A   Partly Cloudy
9:53 AM 52.0 °F - 23.0 °F 32% 30.16 in 10.0 mi SW 13.8 mph - N/A   Partly Cloudy
10:53 AM 57.9 °F - 21.9 °F 25% 30.15 in 10.0 mi SW 20.7 mph - N/A   Clear
11:53 AM 61.0 °F - 21.9 °F 22% 30.12 in 10.0 mi SW 20.7 mph 26.5 mph N/A   Clear
12:53 PM 64.0 °F - 24.1 °F 22% 30.08 in 10.0 mi SW 16.1 mph - N/A   Clear
1:53 PM 66.9 °F - 25.0 °F 21% 30.04 in 10.0 mi WSW 10.4 mph - N/A   Clear
2:53 PM 68.0 °F - 26.1 °F 21% 30.03 in 10.0 mi WSW 11.5 mph - N/A   Clear
3:53 PM 68.0 °F - 26.1 °F 21% 30.03 in 10.0 mi West 17.3 mph - N/A   Partly Cloudy
4:53 PM 68.0 °F - 27.0 °F 21% 30.03 in 10.0 mi WSW 11.5 mph - N/A   Partly Cloudy
5:53 PM 64.0 °F - 27.0 °F 25% 30.04 in 10.0 mi WSW 9.2 mph - N/A   Partly Cloudy
6:53 PM 62.1 °F - 27.0 °F 26% 30.06 in 10.0 mi WNW 8.1 mph - N/A   Partly Cloudy
7:53 PM 59.0 °F - 28.0 °F 31% 30.09 in 10.0 mi NW 10.4 mph - N/A   Partly Cloudy
8:53 PM 57.0 °F - 28.0 °F 33% 30.11 in 10.0 mi NW 13.8 mph 24.2 mph N/A   Partly Cloudy
9:53 PM 50.0 °F - 28.0 °F 43% 30.15 in 10.0 mi NNW 9.2 mph - N/A   Clear
10:53 PM 51.1 °F - 26.1 °F 38% 30.17 in 10.0 mi NNW 11.5 mph - N/A   Clear
11:53 PM 46.0 °F 40.6 °F 27.0 °F 47% 30.18 in 10.0 mi North 11.5 mph - N/A   Clear